Regional Weather Roundup
Issued by NWS Kansas City/Pleasant Hill, MO

Home | Current Version | Previous Version | Text Only | Print | Product List | Glossary On
Versions: 1 2 3 4 5 6 7 8 9 10 11 12 13 14 15 16 17 18 19 20 21 22 23 24 25 26 27 28 29 30 31 32 33 34 35 36 37 38 39 40 41 42 43 44 45 46 47 48 49 50
016
ASUS43 KEAX 241210
RWREAX

WEATHER ROUNDUP FOR EASTERN KANSAS AND NORTHWEST MISSOURI
NATIONAL WEATHER SERVICE KANSAS CITY/PLEASANT HILL MO
700 AM CDT MON JUL 24 2017

KSZ040-057-103>105-MOZ028-029-037-043-241300-
...KANSAS CITY METROPOLITAN AREA...

CITY           SKY/WX    TMP DP  RH WIND       PRES   REMARKS
K.C. INTL      MOCLDY    70  65  84 NE7       30.00R
6HR MIN TEMP:  69; 6HR MAX TEMP:  76;

K.C. DOWNTOWN  PTCLDY    72  65  78 NE7       29.98R
6HR MIN TEMP:  72; 6HR MAX TEMP:  79;

LEES SUMMIT    CLEAR     71  66  84 NE6       30.00R
6HR MIN TEMP:  71; 6HR MAX TEMP:  79;

OLATHE - IXD   PTCLDY    72  65  78 NE6       30.00R
6HR MIN TEMP:  72; 6HR MAX TEMP:  77;

OLATHE - OJC   MOCLDY    71  65  81 NE6       30.00R
6HR MIN TEMP:  71; 6HR MAX TEMP:  79;

LAWRENCE       CLEAR     71  67  87 VRB3      29.99R

$$

MOZ001>008-011>017-020>025-030>033-038>040-044>046-053-054-241300-
...NORTHERN AND CENTRAL MISSOURI...

CITY           SKY/WX    TMP DP  RH WIND       PRES   REMARKS
ST. JOSEPH     CLEAR     66  65  96 N3        30.01R
6HR MIN TEMP:  65; 6HR MAX TEMP:  70;

MOSBY          PTSUNNY   70  64  83 CALM      29.99S
WHITEMAN AFB   PTCLDY    69  69 100 NE6       29.97R
6HR MIN TEMP:  69; 6HR MAX TEMP:  78;

CLINTON        CLEAR     72  72 100 NE6       29.97R
SEDALIA        PTCLDY    71  70  96 NE6       29.99R
6HR MIN TEMP:  71; 6HR MAX TEMP:  78;

WARSAW         NOT AVBL
CHILLICOTHE      N/A     67  64  90 VRB3      30.01R
6HR MIN TEMP:  66; 6HR MAX TEMP:  73;

KIRKSVILLE     CLEAR     65  62  90 N7        30.01R
6HR MIN TEMP:  63; 6HR MAX TEMP:  68;


$$

MOZ041-047>049-056>058-063>065-088>090-097-241300-
...EASTERN AND SOUTHERN MISSOURI...

CITY           SKY/WX    TMP DP  RH WIND       PRES   REMARKS
ST. LOUIS INTL MOSUNNY   75  65  70 N5        29.95R
6HR MIN TEMP:  73; 6HR MAX TEMP:  80;

SPIRIT OF STL  MOSUNNY   74  67  78 CALM      29.95R
COLUMBIA       CLOUDY    70  66  87 NE7       29.98R
JEFFERSON CITY CLEAR     74  68  81 CALM      29.96R
ROLLA          CLEAR     71  68  90 NE3       29.97R
OSAGE BEACH    CLEAR     71  69  93 CALM      29.97R
SPRINGFIELD    CLEAR     73  69  87 NW3       29.98R
BRANSON        PTCLDY    72  70  94 CALM      29.99R
JOPLIN         CLEAR     71  71 100 SW3       29.97R
WEST PLAINS    CLOUDY    69  65  86 N3        29.96S

$$

IAZ060-094-KSZ022-034>040-054-083-096-NEZ052-066-093-241300-
...KANSAS...SOUTHEAST NEBRASKA AND IOWA...

CITY           SKY/WX    TMP DP  RH WIND       PRES   REMARKS
TOPEKA         CLEAR     73  69  87 NE3       29.99R
6HR MIN TEMP:  72; 6HR MAX TEMP:  79;

MANHATTAN      CLEAR     71  66  84 NE7       29.99R
EMPORIA        CLEAR     72  70  93 E3        29.99R
CHANUTE        CLEAR     73  70  90 MISG      29.97R
WICHITA        CLEAR     72  69  90 SE3       29.98R
OMAHA          CLEAR     62  58  86 N6        30.03R
LINCOLN        CLEAR     63  60  90 CALM      30.04R
FALLS CITY     CLEAR     63  61  93 N3        30.01R
LAMONI         CLEAR     62  61  96 N7        30.03R
DES MOINES     CLEAR     65  60  84 NE7       30.02R

$$





USA.gov is the U.S. government's official web portal to all federal, state and local government web resources and services.